GW4311 Weather Reports


time (UTC)temp
C
wind
direction
speed
KPH
gust
KPH
rain 1hr
cm
rain 24hr
cm
rain mn
cm
humidity
%
barometer
mb
20260510020030 12 277 1.6 8.0 0.00 0.00 0.00 97 1010.0
20260510014525 12 272 4.8 9.7 0.00 0.00 0.00 97 1009.9
20260510013025 12 226 3.2 6.4 0.00 0.00 0.00 97 1009.9
20260510011523 11 338 0.0 3.2 0.00 0.00 0.00 97 1010.2
20260510010022 11 221 0.0 6.4 0.00 0.00 0.00 98 1010.1
20260510004521 11 196 0.0 8.0 0.00 0.00 0.00 97 1010.4
20260510003020 11 178 1.6 3.2 0.00 0.00 0.00 97 1010.3
20260510001525 11 51 1.6 6.4 0.00 0.00 0.00 97 1010.3
20260510000016 11 30 1.6 6.4 0.00 0.00 0.00 97 1010.6
20260509234515 11 108 1.6 8.0 0.00 0.00 0.00 97 1010.9
20260509233013 11 140 1.6 6.4 0.00 0.00 0.00 97 1010.8
20260509231511 12 325 0.0 3.2 0.00 0.00 0.00 97 1010.7
20260509230009 12 265 0.0 3.2 0.00 0.00 0.00 96 1010.9
20260509224507 12 137 0.0 3.2 0.00 0.00 0.00 95 1011.0
20260509223005 12 309 0.0 1.6 0.00 0.00 0.00 95 1011.1
20260509221505 13 93 0.0 1.6 0.00 0.00 0.00 94 1011.1
20260509220001 13 51 0.0 3.2 0.00 0.00 0.00 95 1011.0
20260509214600 13 153 1.6 3.2 0.00 0.00 0.00 94 1011.1
20260509213104 13 9 0.0 3.2 0.00 0.00 0.00 94 1011.0
20260509211605 13 93 0.0 3.2 0.00 0.00 0.00 93 1011.1
20260509204605 14 309 0.0 6.4 0.00 0.00 0.00 91 1011.0
20260509203058 15 67 1.6 3.2 0.00 0.00 0.00 89 1011.1
20260509201556 15 119 0.0 3.2 0.00 0.00 0.00 87 1011.2
20260509200055 16 309 0.0 3.2 0.00 0.00 0.00 85 1011.0
20260509194557 17 93 0.0 1.6 0.00 0.00 0.00 83 1010.8
20260509193056 18 9 0.0 3.2 0.00 0.00 0.00 80 1010.8
20260509191600 20 9 0.0 3.2 0.00 0.00 0.00 75 1010.7
20260509190057 21 137 0.0 3.2 0.00 0.00 0.00 70 1010.7
20260509184551 21 83 1.6 4.8 0.00 0.00 0.00 64 1010.5
20260509183051 22 126 1.6 6.4 0.00 0.00 0.00 63 1010.4
20260509181559 23 83 1.6 3.2 0.00 0.00 0.00 60 1010.4
20260509180049 23 108 1.6 8.0 0.00 0.00 0.00 57 1010.3
20260509174557 24 129 1.6 9.7 0.00 0.00 0.00 54 1010.3
20260509173057 25 115 3.2 11.3 0.00 0.00 0.00 53 1010.1
20260509171552 25 93 4.8 12.9 0.00 0.00 0.00 52 1010.2
20260509170047 26 162 1.6 9.7 0.00 0.00 0.00 50 1010.2
20260509164546 25 68 4.8 9.7 0.00 0.00 0.00 48 1010.3
20260509163045 25 93 8.0 12.9 0.00 0.00 0.00 49 1010.5
20260509161542 25 146 3.2 9.7 0.00 0.00 0.00 54 1010.5
20260509160041 25 153 8.0 16.1 0.00 0.00 0.00 51 1010.6
20260509154541 25 140 3.2 9.7 0.00 0.00 0.00 50 1010.8
20260509153038 26 105 3.2 12.9 0.00 0.00 0.00 50 1010.8
20260509151537 26 165 8.0 17.7 0.00 0.00 0.00 51 1010.8
20260509150036 25 93 4.8 12.9 0.00 0.00 0.00 52 1011.0
20260509144546 23 132 4.8 14.5 0.00 0.00 0.00 54 1011.3
20260509143039 24 41 4.8 17.7 0.00 0.00 0.00 52 1011.3
20260509141538 25 24 3.2 12.9 0.00 0.00 0.00 51 1011.4
20260509140053 26 67 6.4 14.5 0.00 0.00 0.00 47 1011.5
20260509134530 26 82 6.4 17.7 0.00 0.00 0.00 47 1011.8
20260509133027 26 265 14.5 22.5 0.00 0.00 0.00 49 1011.8
20260509131534 25 40 6.4 14.5 0.00 0.00 0.00 50 1011.9
20260509130027 25 51 3.2 17.7 0.00 0.00 0.00 51 1011.7
20260509124522 25 79 6.4 14.5 0.00 0.00 0.00 51 1012.0
20260509123023 25 237 9.7 22.5 0.00 0.00 0.00 52 1012.1
20260509121514 25 100 6.4 14.5 0.00 0.00 0.00 54 1012.2
20260509120012 24 175 9.7 17.7 0.00 0.00 0.00 54 1012.3
20260509114509 24 93 6.4 17.7 0.00 0.00 0.00 56 1012.5
20260509113005 23 9 3.2 14.5 0.00 0.00 0.00 56 1012.5
20260509111501 23 61 4.8 16.1 0.00 0.00 0.00 57 1012.8
20260509110056 22 34 6.4 14.5 0.00 0.00 0.00 59 1013.1
20260509104554 22 99 3.2 14.5 0.00 0.00 0.00 60 1013.2
20260509103049 22 51 6.4 17.7 0.00 0.00 0.00 63 1013.3
20260509101545 22 156 8.0 12.9 0.00 0.00 0.00 64 1013.4
20260509100041 21 291 4.8 12.9 0.00 0.00 0.00 65 1013.6
20260509094537 21 66 4.8 12.9 0.00 0.00 0.00 64 1013.6
20260509093033 21 48 4.8 11.3 0.00 0.00 0.00 68 1013.5
20260509091528 20 205 1.6 9.7 0.00 0.00 0.00 70 1013.8
20260509090024 20 93 4.8 11.3 0.00 0.00 0.00 70 1013.7
20260509084521 19 279 3.2 8.0 0.00 0.00 0.00 72 1013.9
20260509083015 19 48 4.8 9.7 0.00 0.00 0.00 74 1013.7
20260509081511 18 115 3.2 9.7 0.00 0.00 0.00 75 1014.0
20260509080006 17 48 1.6 9.7 0.00 0.00 0.00 78 1014.0
20260509074502 16 54 4.8 12.9 0.00 0.00 0.00 80 1013.9
20260509073057 15 117 6.4 9.7 0.00 0.00 0.00 81 1014.0
20260509071555 14 42 4.8 9.7 0.00 0.00 0.00 82 1014.0
20260509070049 13 51 4.8 8.0 0.00 0.00 0.00 86 1014.1
20260509064546 12 43 3.2 11.3 0.00 0.00 0.00 87 1014.4
20260509063038 10 93 3.2 9.7 0.00 0.00 0.00 90 1014.2
20260509061540 8 22 4.8 8.0 0.00 0.00 0.00 96 1014.3
20260509060031 8 9 0.0 3.2 0.00 0.00 0.00 98 1014.2
20260509054530 7 9 1.6 3.2 0.00 0.00 0.00 98 1014.1
20260509053034 7 59 0.0 3.2 0.00 0.00 0.00 98 1014.1
20260509051528 7 325 0.0 3.2 0.00 0.00 0.00 98 1014.0
20260509050029 7 93 1.6 6.4 0.00 0.00 0.00 97 1013.8
20260509044524 7 93 1.6 3.2 0.00 0.00 0.00 97 1013.6
20260509043021 7 93 0.0 3.2 0.00 0.00 0.00 97 1013.7
20260509041532 7 41 0.0 1.6 0.00 0.00 0.00 96 1013.7
20260509040018 7 153 1.6 3.2 0.00 0.00 0.00 96 1013.6
20260509034517 7 178 0.0 3.2 0.00 0.00 0.00 96 1013.6
20260509033016 7 265 0.0 3.2 0.00 0.00 0.00 96 1013.8
20260509031514 7 162 0.0 3.2 0.00 0.00 0.00 95 1013.7
20260509030015 8 9 0.0 3.2 0.00 0.00 0.00 95 1013.7
20260509024513 8 51 0.0 3.2 0.00 0.00 0.00 94 1013.9
20260509023008 8 178 0.0 3.2 0.00 0.00 0.00 94 1014.1
20260509021506 8 93 0.0 3.2 0.00 0.00 0.00 93 1014.1